Location: Bourth
(48.7670°N, 0.8113°E)
Time: 19:23:38
(UTC+02:00)

ISS - Visible Passes

Search period start: 22 May 2019 00:00
Search period end: 01 June 2019 00:00
Orbit: 407 x 410 km, 51.6° (Epoch: 23 May)

Date Brightness Start Highest point End Pass type
(mag) Time Alt. Az. Time Alt. Az. Time Alt. Az.
22 May -3.0 01:08:49 10° WNW 01:12:03 51° N 01:14:14 19° ENE visible
22 May -2.1 02:45:27 10° WNW 02:46:55 24° WNW 02:46:55 24° WNW visible
22 May -3.8 22:41:00 10° WSW 22:44:18 86° NNW 22:47:38 10° ENE visible
23 May -2.9 00:17:52 10° WNW 00:21:07 49° N 00:24:20 10° ENE visible
23 May -3.4 01:54:35 10° WNW 01:57:18 57° WNW 01:57:18 57° WNW visible
23 May -2.9 23:26:54 10° W 23:30:07 51° N 23:33:23 10° ENE visible
24 May -3.5 01:03:41 10° WNW 01:06:59 64° NNE 01:07:51 43° ENE visible
24 May -1.1 02:40:23 10° W 02:40:33 11° W 02:40:33 11° W visible
24 May -3.2 22:35:53 10° W 22:39:10 59° NNW 22:42:27 10° ENE visible
25 May -3.1 00:12:46 10° WNW 00:16:01 54° N 00:18:27 16° E visible
25 May -2.3 01:49:24 10° WNW 01:51:10 28° W 01:51:10 28° W visible
25 May -2.9 23:21:48 10° WNW 23:25:02 49° N 23:28:16 10° E visible
26 May -4.0 00:58:27 10° WNW 01:01:46 83° SSW 01:01:48 83° S visible
26 May -2.8 22:30:47 10° W 22:34:01 49° N 22:37:15 10° ENE visible
27 May -3.7 00:07:32 10° WNW 00:10:51 73° NNE 00:12:29 27° E visible
27 May -1.5 01:44:19 10° W 01:45:12 16° W 01:45:12 16° W visible
27 May -3.3 23:16:35 10° WNW 23:19:52 58° NNE 23:23:08 10° E visible
28 May -3.1 00:53:14 10° WNW 00:55:53 40° WSW 00:55:53 40° WSW visible
28 May -3.0 22:25:36 10° WNW 22:28:51 51° N 22:32:06 10° E visible
29 May -3.9 00:02:14 10° WNW 00:05:32 69° SSW 00:06:36 38° SE visible
29 May -3.8 23:11:16 10° WNW 23:14:35 84° NNE 23:17:20 14° ESE visible
30 May -2.0 00:48:12 10° W 00:50:03 21° WSW 00:50:03 21° WSW visible
30 May -3.0 23:57:00 10° W 00:00:04 36° SSW 00:00:48 31° S visible
31 May -3.6 23:05:55 10° WNW 23:09:10 55° SSW 23:11:35 16° SE visible
